Regional Weather Roundup
Issued by NWS

Home | Current Version | Previous Version | Text Only | Print | Product List | Glossary Off
Versions: 1 2 3 4 5 6 7 8 9 10 11 12 13 14 15 16 17 18 19 20 21 22 23 24 25 26 27 28 29 30 31 32 33 34 35 36 37 38 39 40 41 42 43 44 45 46 47 48 49 50

000
ASUS44 KMEG 310410
RWRTN
TENNESSEE HOURLY STATE WEATHER ROUNDUP
NATIONAL WEATHER SERVICE MEMPHIS TN
1100 PM CDT SUN AUG 30 2015

TNZ002-004-019-021-049-052-054-088>092-310500-
WEST TENNESSEE

CITY           SKY/WX    TMP DP  RH WIND       PRES   REMARKS
MEMPHIS INTL   PTCLDY    77  69  76 SE7       30.03F
NWS MEMPHIS      N/A     73 N/A N/A MISG        N/A
JACKSON        CLEAR     71  69  93 S3        30.06R
DYERSBURG      CLEAR    N/A N/A N/A MISG        N/A
UNION CITY     PTCLDY   N/A N/A N/A CALM      30.05S
PARIS          CLEAR     66  66 100 CALM      30.07S
LEXINGTON        N/A     70  70 100 CALM      30.07S VSB 1/2
$$

TNZ008-025-027-028-033-062-065-066-310500-
NORTH MIDDLE TENNESSEE

CITY           SKY/WX    TMP DP  RH WIND       PRES   REMARKS
NASHVILLE      MOCLDY    71  64  78 CALM      30.10S
CLARKSVILLE    MOCLDY    69  68  96 CALM      30.08S
SMYRNA         CLEAR     68  66  93 CALM      30.11S
COOKEVILLE     CLEAR     70  68  94 CALM      30.11R
CROSSVILLE     MOCLDY    70  65  84 CALM      30.16S
$$

TNZ061-075-076-078-094-096-097-310500-
SOUTH MIDDLE TENNESSEE

CITY           SKY/WX    TMP DP  RH WIND       PRES   REMARKS
FAYETTEVILLE   CLEAR     66  64  94 CALM      30.11S
TULLAHOMA      CLOUDY    64  63  94 CALM      30.12S VSB 1/4
WINCHESTER     CLEAR     66  66 100 S3        30.12R
MCMINNVILLE    CLEAR     66  66 100 CALM      30.12R
COLUMBIA       CLEAR     70  70 100 CALM      30.09S
SHELBYVILLE    CLEAR     66  66 100 CALM      30.11F
$$

TNZ017-018-042-046-047-310500-
NORTHEAST TENNESSEE

CITY           SKY/WX    TMP DP  RH WIND       PRES   REMARKS
TRI CITIES     CLOUDY    69  63  81 VRB3      30.16S
ELIZABETHTON   MOCLDY    70  59  68 CALM      30.16S
$$

TNZ012-013-036-069-073-074-310500-
CENTRAL EAST TENNESSEE

CITY           SKY/WX    TMP DP  RH WIND       PRES   REMARKS
KNOXVILLE      CLOUDY    71  63  75 W3        30.10R
OAK RIDGE      CLOUDY    72  67  84 CALM      30.12S
GATLINBURG     CLEAR     66  63  88 CALM      30.12F
MORRISTOWN     CLEAR     66  63  88 E5        30.15F
$$

TNZ083-085-099-310500-
SOUTHEAST TENNESSEE

CITY           SKY/WX    TMP DP  RH WIND       PRES   REMARKS
CHATTANOOGA    MOCLDY    73  64  73 SE3       30.11F
$$

SKY/WX REPORTED AS FAIR MEANS FEW OR NO CLOUDS BELOW
12 THOUSAND FEET.



USA.gov is the U.S. government's official web portal to all federal, state and local government web resources and services.